This is the latest recevied weather packets stored in our database for station/object N1ORT. If no packets are shown the sender has not sent any weather packets the latest 1 day(s).
| Time | Temp. | Humidity | Pressure | Rain* | Wind** | Luminosity | Snow |
|---|---|---|---|---|---|---|---|
| 1777979545 | 13.89° C | 71% | 1007.5 hPa | 0 mm | 1.34 m/s, 82° | 81 W/m² | - |
| 1777979241 | 13.89° C | 72% | 1007.4 hPa | 0 mm | 0.89 m/s, 84° | 77 W/m² | - |
| 1777978939 | 13.89° C | 72% | 1007.4 hPa | 0 mm | 1.34 m/s, 268° | 72 W/m² | - |
| 1777978635 | 13.33° C | 72% | 1007.3 hPa | 0 mm | 1.79 m/s, 85° | 57 W/m² | - |
| 1777978331 | 13.33° C | 73% | 1007.2 hPa | 0 mm | 1.34 m/s, 66° | 60 W/m² | - |
| 1777978028 | 12.78° C | 73% | 1007.4 hPa | 0 mm | 1.34 m/s, 275° | 51 W/m² | - |
| 1777977725 | 12.78° C | 74% | 1007.2 hPa | 0 mm | 1.34 m/s, 87° | 48 W/m² | - |
| 1777977422 | 12.78° C | 74% | 1007.4 hPa | 0 mm | 0.89 m/s, 95° | 44 W/m² | - |
| 1777977120 | 12.78° C | 75% | 1007.3 hPa | 0 mm | 0.45 m/s, 228° | 42 W/m² | - |
| 1777976817 | 12.22° C | 75% | 1007.4 hPa | 0 mm | 0 m/s | 40 W/m² | - |
| 1777976514 | 12.22° C | 75% | 1007.3 hPa | 0 mm | 0.45 m/s, 332° | 43 W/m² | - |
| 1777976213 | 12.22° C | 75% | 1007.7 hPa | 0 mm | 0.45 m/s, 18° | 28 W/m² | - |
| 1777975909 | 12.22° C | 75% | 1007.4 hPa | 0 mm | 0 m/s | 22 W/m² | - |
| 1777975605 | 11.67° C | 75% | 1007.3 hPa | 0 mm | 0.45 m/s, 135° | 16 W/m² | - |
| 1777975303 | 11.67° C | 75% | 1007.3 hPa | 0 mm | 0.45 m/s, 160° | 14 W/m² | - |
| 1777974998 | 11.67° C | 75% | 1007.4 hPa | 0 mm | 1.34 m/s, 234° | 11 W/m² | - |
| 1777974696 | 11.67° C | 76% | 1007.4 hPa | 0 mm | 0.89 m/s, 224° | 8 W/m² | - |
| 1777974392 | 11.67° C | 76% | 1007.3 hPa | 0 mm | 0 m/s | 6 W/m² | - |
| 1777974088 | 11.11° C | 76% | 1007.6 hPa | 0 mm | 0.89 m/s, 107° | 4 W/m² | - |
| 1777973784 | 11.11° C | 76% | 1007.4 hPa | 0 mm | 0.89 m/s, 81° | 3 W/m² | - |
| 1777973482 | 11.11° C | 76% | 1007.6 hPa | 0 mm | 0.89 m/s, 69° | 2 W/m² | - |
| 1777973179 | 11.11° C | 76% | 1007.7 hPa | 0 mm | 0.89 m/s, 69° | 1 W/m² | - |
| 1777972878 | 11.11° C | 76% | 1007.5 hPa | 0 mm | 0.89 m/s, 96° | 0 W/m² | - |
| 1777972574 | 11.67° C | 76% | 1007.6 hPa | 0 mm | 0.89 m/s, 258° | 0 W/m² | - |
| 1777972272 | 11.11° C | 76% | 1007.5 hPa | 0 mm | 0 m/s | 0 W/m² | - |
* Rain latest hour (hover to see other rain measurements)
** Current wind speed in m/s (hover to see current wind gust speed)